WetterOnline ( http://www.wetteronline.de )

Wetter aktuell Mühldorf

Aktuelles Wetter: Mühldorf am Inn (410m)

6-stündlich | Neueste Meldungen
Ortszeit Temperatur Wetter
Sa, 21.10. 14:00 17.1° C bewölkt
Sa, 21.10. 8:00 10.7° C leichter Regen
Sa, 21.10. 2:00 8.3° C bewölkt
Fr, 20.10. 20:00 11.2° C bedeckt
Ortszeit Temperatur Wetter
Sa, 21.10. 19:00 14.2° C wolkig
Sa, 21.10. 18:30 14.8° C wolkig
Sa, 21.10. 18:00 15.7° C wolkig
Sa, 21.10. 17:30 16.3° C wolkig
Sa, 21.10. 17:00 17.5° C wolkig
Sa, 21.10. 16:30 17.7° C wolkig
Ortszeit Relative Feuchte Sichtweite
Sa, 21.10. 14:00 75% 20 km
Sa, 21.10. 8:00 97% 1.5 km
Sa, 21.10. 2:00 97% 5.0 km
Fr, 20.10. 20:00 89% 12 km
Ortszeit Relative Feuchte Sichtweite
Sa, 21.10. 19:00 93% 9 km
Sa, 21.10. 18:30 89% 12 km
Sa, 21.10. 18:00 85% 12 km
Sa, 21.10. 17:30 82% 16 km
Sa, 21.10. 17:00 73% 18 km
Sa, 21.10. 16:30 74% 17 km
Ortszeit Niederschlagsmenge Niederschlagsart
Sa, 21.10. 14:00 0.4 l/m2 in 6 Std. Regen
Sa, 21.10. 8:00 3 l/m2 in 12 Std. Regen
Sa, 21.10. 2:00 0.0 l/m2 in 6 Std. -
Fr, 20.10. 20:00 0.0 l/m2 in 12 Std. -
Ortszeit Niederschlagsmenge Niederschlagsart
Sa, 21.10. 19:00 0.0 l/m2 in 1 Std. -
Sa, 21.10. 18:30 keine Meldung -
Sa, 21.10. 18:00 0.0 l/m2 in 1 Std. -
Sa, 21.10. 17:30 keine Meldung -
Sa, 21.10. 17:00 0.0 l/m2 in 1 Std. -
Sa, 21.10. 16:30 keine Meldung -
Ortszeit Stärke Spitze Richtung
km/h Bft. km/h Grad Sektor
Sa, 21.10. 14:00 6 1 11 230° SW
Sa, 21.10. 8:00 2 1 11 280° W
Sa, 21.10. 2:00 0 0 11 - -
Fr, 20.10. 20:00 4 1 7 100° O
Ortszeit Stärke Spitze Richtung
km/h Bft. km/h Grad Sektor
Sa, 21.10. 19:00 7 2 11 80° O
Sa, 21.10. 18:30 4 1 7 90° O
Sa, 21.10. 18:00 4 1 7 90° O
Sa, 21.10. 17:30 4 1 4 50° NO
Sa, 21.10. 17:00 0 0 11 - -
Sa, 21.10. 16:30 4 1 11 170° S
Ortszeit Untergrenze Bedeckung Gattung
total tief tief mittel hoch
Sa, 21.10. 14:00 1800 m 8/8 7/8 - - -
Sa, 21.10. 8:00 630 m 7/8 7/8 - - -
Sa, 21.10. 2:00 2400 m 8/8 4/8 - - -
Fr, 20.10. 20:00 4200 m 8/8 8/8 - - -
Ortszeit Bedeckungsgrad in Achtel und Wolkenuntergrenze
Sa, 21.10. 19:00 7(7200m) 8(8400m) 8(9000m)
Sa, 21.10. 18:30 8(7200m) 8(8400m) 8(9000m)
Sa, 21.10. 18:00 1(1380m) 7(7500m) 8(8700m)
Sa, 21.10. 17:30 2(1410m) 7(8100m) 8(9000m)
Sa, 21.10. 17:00 2(7500m) 5(9000m) 8(9000m)
Sa, 21.10. 16:30 8(7200m)
Ortszeit Luftdruck NN (hPa) Tendenz (hPa in 3 Std.)
Sa, 21.10. 14:00 1017 - 1,4
Sa, 21.10. 8:00 1019 + 0,6
Sa, 21.10. 2:00 1019 + 0,2
Fr, 20.10. 20:00 1018 + 0,6
Ortszeit Luftdruck NN (hPa) Tendenz (hPa in 3 Std.)
Sa, 21.10. 19:00 1016 - 0,3
Sa, 21.10. 18:30 1016 - 0,5
Sa, 21.10. 18:00 1016 - 0,5
Sa, 21.10. 17:30 1016 - 0,6
Sa, 21.10. 17:00 1016 - 0,9
Sa, 21.10. 16:30 1016 - 1,4
Ortszeit Schneehöhe (cm)
Sa, 21.10. 14:00 0
Sa, 21.10. 8:00 0
Sa, 21.10. 2:00 0
Fr, 20.10. 20:00 0
Ortszeit Schneehöhe (cm)
Sa, 21.10. 19:00 0
Sa, 21.10. 18:30 0
Sa, 21.10. 18:00 0
Sa, 21.10. 17:30 0
Sa, 21.10. 17:00 0
Sa, 21.10. 16:30 0
Link zu dieser Seite / Seite empfehlen

Das Wetter in ...